Weather History for Oklahoma City / Page Muni, OK

Change the Weather History Date:

Thursday, May 2, 2013

  Actual Average (KOKC) Record (KOKC)
Temperature  
Mean Temperature 42 °F 66 °F  
Max Temperature 48 °F 77 °F 94 °F (1943)
Min Temperature 35 °F 55 °F 37 °F (2013)
Degree Days  
Heating Degree Days 24 2  
Month to date heating degree days 4  
Since 1 July heating degree days 3336  
Cooling Degree Days 0 3  
Month to date cooling degree days 6  
Year to date cooling degree days 72  
Moisture  
Dew Point 35 °F    
Average Humidity 83    
Maximum Humidity 100    
Minimum Humidity 50    
Precipitation  
Precipitation 0.40 in 0.14 in 2.99 in (1990)
Month to date precipitation 0.28  
Year to date precipitation 9.38  
Sea Level Pressure  
Sea Level Pressure 30.36 in    
Wind  
Wind Speed 24 mph (North)    
Max Wind Speed 38 mph    
Max Gust Speed 53 mph    
Visibility 9 miles    
Events Rain    
T = Trace of Precipitation, MM = Missing Value Source: NWS Daily Summary

Daily Weather History Graph

Daily Weather History Graph

Search for Another Location

Airport:

Trip Planner

Search our weather history database for the weather conditions in past years. The results will help you decide how hot, cold, wet, or windy it might be!

Date:

Astronomy

May. 02, 2013 Rise Set
Actual Time 6:38 AM CDT 8:18 PM CDT
Civil Twilight 6:10 AM CDT 8:46 PM CDT
Nautical Twilight 5:38 AM CDT 9:19 PM CDT
Astronomical Twilight 5:03 AM CDT 9:54 PM CDT
Moon 2:10 AM CDT (5/2) 1:24 PM CDT (5/2)
Length of Visible Light 14h 35m
Length of Day
13h 40m
Waning Gibbous, 47% of the Moon is Illuminated
May 2
Waning Gibbous
May 9
New
May 17
First Quarter
May 24
Full
May 31
Last Quarter

Hourly Weather History & Observations

Time (CDT) Temp. Windchill Dew Point Humidity Pressure Visibility Wind Dir Wind Speed Gust Speed Precip Events Conditions
12:15 AM 41.0 °F 31.6 °F 37.4 °F 87% 30.21 in 10.0 mi North 20.7 mph 28.8 mph N/A   Overcast
12:35 AM 41.0 °F 31.4 °F 37.4 °F 87% 30.22 in 10.0 mi North 21.9 mph 34.5 mph N/A   Overcast
12:55 AM 41.0 °F 30.9 °F 37.4 °F 87% 30.23 in 10.0 mi North 24.2 mph 34.5 mph N/A   Overcast
1:15 AM 41.0 °F 30.9 °F 37.4 °F 87% 30.23 in 10.0 mi North 24.2 mph 33.4 mph N/A   Overcast
1:35 AM 41.0 °F 30.5 °F 37.4 °F 87% 30.24 in 10.0 mi North 26.5 mph 36.8 mph N/A   Overcast
1:55 AM 41.0 °F 30.0 °F 37.4 °F 87% 30.24 in 10.0 mi North 28.8 mph 34.5 mph N/A   Overcast
2:15 AM 41.0 °F 31.1 °F 37.4 °F 87% 30.24 in 10.0 mi North 23.0 mph 35.7 mph N/A   Overcast
2:35 AM 41.0 °F 30.5 °F 37.4 °F 87% 30.25 in 10.0 mi North 26.5 mph 29.9 mph N/A   Overcast
2:55 AM 41.0 °F 30.9 °F 37.4 °F 87% 30.27 in 10.0 mi North 24.2 mph 34.5 mph N/A   Overcast
3:15 AM 39.2 °F 29.0 °F 37.4 °F 93% 30.26 in 9.0 mi North 21.9 mph 32.2 mph N/A   Overcast
3:35 AM 39.2 °F 29.6 °F 37.4 °F 93% 30.26 in 9.0 mi North 19.6 mph 31.1 mph N/A   Overcast
3:55 AM 39.2 °F 28.7 °F 37.4 °F 93% 30.27 in 8.0 mi North 23.0 mph 27.6 mph N/A   Overcast
4:15 AM 39.2 °F 28.5 °F 37.4 °F 93% 30.28 in 6.0 mi North 24.2 mph 33.4 mph N/A Rain Light Rain
4:35 AM 39.2 °F 28.0 °F 37.4 °F 93% 30.28 in 10.0 mi North 26.5 mph 32.2 mph N/A   Overcast
4:55 AM 39.2 °F 29.3 °F 37.4 °F 93% 30.29 in 10.0 mi North 20.7 mph 33.4 mph N/A   Overcast
5:15 AM 39.2 °F 28.7 °F 37.4 °F 93% 30.29 in 7.0 mi North 23.0 mph 33.4 mph N/A   Overcast
5:35 AM 39.2 °F 27.8 °F 37.4 °F 93% 30.30 in 4.0 mi North 27.6 mph 34.5 mph N/A Rain Light Rain
5:55 AM 39.2 °F 28.0 °F 37.4 °F 93% 30.30 in 4.0 mi North 26.5 mph 34.5 mph N/A Rain Light Rain
6:15 AM 37.4 °F 25.6 °F 37.4 °F 100% 30.32 in 3.0 mi North 26.5 mph 34.5 mph N/A Rain Light Rain
6:35 AM 37.4 °F 25.9 °F 37.4 °F 100% 30.32 in 3.0 mi North 25.3 mph 34.5 mph 0.01 in Rain Light Rain
6:55 AM 37.4 °F 25.4 °F 37.4 °F 100% 30.33 in 5.0 mi North 27.6 mph 38.0 mph 0.01 in Rain Light Rain
7:15 AM 37.4 °F 25.4 °F 37.4 °F 100% 30.32 in 3.0 mi North 27.6 mph 39.1 mph 0.01 in   Scattered Clouds
7:35 AM 37.4 °F 25.9 °F 37.4 °F 100% 30.33 in 8.0 mi North 25.3 mph 32.2 mph 0.03 in   Scattered Clouds
7:55 AM 37.4 °F 25.4 °F 37.4 °F 100% 30.33 in 1.2 mi North 27.6 mph 34.5 mph 0.22 in   Mostly Cloudy
8:15 AM 37.4 °F 25.6 °F 37.4 °F 100% 30.35 in 9.0 mi North 26.5 mph 38.0 mph N/A Rain Light Rain
8:35 AM 37.4 °F 25.2 °F 35.6 °F 93% 30.37 in 10.0 mi North 28.8 mph 33.4 mph N/A   Mostly Cloudy
8:55 AM 37.4 °F 24.8 °F 35.6 °F 93% 30.37 in 10.0 mi North 31.1 mph 39.1 mph N/A   Overcast
9:15 AM 37.4 °F 25.6 °F 35.6 °F 93% 30.38 in 6.0 mi North 26.5 mph 36.8 mph 0.01 in Rain Light Rain
9:35 AM 37.4 °F 25.9 °F 35.6 °F 93% 30.38 in 10.0 mi North 25.3 mph 36.8 mph 0.01 in   Overcast
9:55 AM 37.4 °F 24.8 °F 35.6 °F 93% 30.39 in 10.0 mi North 31.1 mph 36.8 mph 0.01 in   Overcast
10:15 AM 37.4 °F 26.4 °F 35.6 °F 93% 30.38 in 2.0 mi North 23.0 mph 35.7 mph 0.04 in   Mostly Cloudy
10:35 AM 37.4 °F 26.1 °F 37.4 °F 100% 30.40 in 5.0 mi North 24.2 mph 31.1 mph 0.16 in Rain Light Rain
10:55 AM 39.2 °F 27.2 °F 37.4 °F 93% 30.38 in 10.0 mi North 31.1 mph 41.4 mph 0.16 in   Mostly Cloudy
11:15 AM 39.2 °F 27.4 °F 37.4 °F 93% 30.40 in 10.0 mi North 29.9 mph 39.1 mph N/A   Overcast
11:35 AM 39.2 °F 28.0 °F 35.6 °F 87% 30.42 in 10.0 mi North 26.5 mph 46.0 mph N/A   Overcast
11:55 AM 37.4 °F 25.4 °F 35.6 °F 93% 30.42 in 10.0 mi North 27.6 mph 43.7 mph N/A   Overcast
12:15 PM 39.2 °F 26.1 °F 35.6 °F 87% 30.42 in 10.0 mi North 38.0 mph 47.2 mph N/A   Overcast
12:35 PM 39.2 °F 27.8 °F 35.6 °F 87% 30.42 in 10.0 mi North 27.6 mph 42.6 mph N/A   Overcast
12:55 PM 37.4 °F 24.6 °F 33.8 °F 87% 30.42 in 10.0 mi North 32.2 mph 46.0 mph N/A   Overcast
1:15 PM 37.4 °F 24.6 °F 33.8 °F 87% 30.42 in 9.0 mi North 32.2 mph 44.9 mph N/A   Mostly Cloudy
1:35 PM 37.4 °F 25.0 °F 33.8 °F 87% 30.42 in 9.0 mi North 29.9 mph 42.6 mph N/A Rain Light Rain
1:55 PM 37.4 °F 25.4 °F 35.6 °F 93% 30.42 in 9.0 mi North 27.6 mph 42.6 mph N/A Rain Light Rain
2:15 PM 37.4 °F 26.4 °F 35.6 °F 93% 30.42 in 8.0 mi North 23.0 mph 39.1 mph N/A Rain Light Rain
2:35 PM 39.2 °F 26.8 °F 35.6 °F 87% 30.42 in 10.0 mi North 33.4 mph 42.6 mph N/A   Overcast
2:55 PM 39.2 °F 26.6 °F 35.6 °F 87% 30.43 in 10.0 mi North 34.5 mph 48.3 mph N/A   Overcast
3:15 PM 41.0 °F 29.5 °F 32.0 °F 70% 30.43 in 10.0 mi North 32.2 mph 52.9 mph N/A   Overcast
3:35 PM 41.0 °F 30.0 °F 33.8 °F 76% 30.43 in 10.0 mi North 28.8 mph 40.3 mph N/A   Overcast
3:55 PM 42.8 °F 32.1 °F 32.0 °F 66% 30.42 in 10.0 mi NNE 31.1 mph 42.6 mph N/A   Overcast
4:15 PM 44.6 °F 34.6 °F 32.0 °F 61% 30.41 in 10.0 mi North 31.1 mph 40.3 mph N/A   Mostly Cloudy
4:35 PM 46.4 °F 37.7 °F 33.8 °F 62% 30.41 in 10.0 mi NNE 26.5 mph 39.1 mph N/A   Mostly Cloudy
4:55 PM 48.2 °F - 33.8 °F 58% 30.41 in 10.0 mi North 32.2 mph 41.4 mph N/A   Mostly Cloudy
5:15 PM 46.4 °F 37.0 °F 28.4 °F 50% 30.40 in 10.0 mi NNE 31.1 mph 44.9 mph N/A   Overcast
5:35 PM 46.4 °F 37.0 °F 28.4 °F 50% 30.41 in 10.0 mi North 31.1 mph 40.3 mph N/A   Overcast
5:55 PM 46.4 °F 38.1 °F 28.4 °F 50% 30.41 in 10.0 mi NNE 24.2 mph 34.5 mph N/A   Overcast
6:15 PM 46.4 °F 37.9 °F 28.4 °F 50% 30.41 in 10.0 mi NNE 25.3 mph 34.5 mph N/A   Overcast
6:35 PM 46.4 °F 39.2 °F 28.4 °F 50% 30.41 in 10.0 mi NNE 18.4 mph 26.5 mph N/A   Overcast
6:55 PM 46.4 °F 39.2 °F 28.4 °F 50% 30.40 in 10.0 mi NNE 18.4 mph 24.2 mph N/A   Mostly Cloudy
7:15 PM 46.4 °F 39.8 °F 30.2 °F 53% 30.40 in 10.0 mi NNE 16.1 mph 28.8 mph N/A   Partly Cloudy
7:35 PM 44.6 °F 38.1 °F 32.0 °F 61% 30.40 in 10.0 mi NNE 13.8 mph 27.6 mph N/A   Clear
7:55 PM 44.6 °F 38.8 °F 32.0 °F 61% 30.40 in 10.0 mi NNE 11.5 mph - N/A   Clear
8:15 PM 41.0 °F 33.9 °F 32.0 °F 70% 30.41 in 10.0 mi NNE 12.7 mph 17.3 mph N/A   Clear
8:35 PM 41.0 °F 34.7 °F 32.0 °F 70% 30.41 in 10.0 mi NNE 10.4 mph - N/A   Clear
8:55 PM 39.2 °F 33.6 °F 32.0 °F 75% 30.41 in 10.0 mi NNE 8.1 mph - N/A   Clear
9:15 PM 37.4 °F 31.4 °F 32.0 °F 81% 30.41 in 10.0 mi North 8.1 mph - N/A   Clear
9:35 PM 37.4 °F 31.4 °F 32.0 °F 81% 30.41 in 10.0 mi NNE 8.1 mph - N/A   Clear
9:55 PM 37.4 °F 31.4 °F 32.0 °F 81% 30.41 in 10.0 mi North 8.1 mph - N/A   Clear
10:15 PM 35.6 °F 29.2 °F 32.0 °F 87% 30.41 in 10.0 mi North 8.1 mph - N/A   Clear
10:35 PM 35.6 °F 29.2 °F 32.0 °F 87% 30.41 in 10.0 mi NNE 8.1 mph - N/A   Clear
10:55 PM 35.6 °F 29.9 °F 32.0 °F 87% 30.41 in 10.0 mi North 6.9 mph - N/A   Clear
11:15 PM 35.6 °F 29.2 °F 32.0 °F 87% 30.41 in 10.0 mi North 8.1 mph - N/A   Clear
11:35 PM 35.6 °F 29.2 °F 32.0 °F 87% 30.41 in 10.0 mi North 8.1 mph - N/A   Clear
11:55 PM 35.6 °F 29.9 °F 32.0 °F 87% 30.40 in 10.0 mi NNW 6.9 mph - N/A   Clear